Data supplied by UK-AIR on 16/12/2023
All Data GMT hour ending 
Status: R =Ratified P=Provisional,P*=As supplied
,,Hafod-yr-ynys Roadside,,,,,,,,,,,,,,,,,,,,,,,
Date,time,"Nitric oxide",status,unit,"Nitrogen dioxide",status,unit,"Nitrogen oxides as nitrogen dioxide",status,unit
 
01-01-2023,01:00,5.01751,R,ugm-3,2.33424,R,ugm-3,10.02764,R,ugm-3
01-01-2023,02:00,2.90787,R,ugm-3,3.01089,R,ugm-3,7.46957,R,ugm-3
01-01-2023,03:00,2.18946,R,ugm-3,2.11715,R,ugm-3,5.47428,R,ugm-3
01-01-2023,04:00,1.71052,R,ugm-3,2.18642,R,ugm-3,4.80918,R,ugm-3
01-01-2023,05:00,1.29999,R,ugm-3,0.66711,R,ugm-3,2.66040,R,ugm-3
01-01-2023,06:00,2.49735,R,ugm-3,0.51951,R,ugm-3,4.34872,R,ugm-3
01-01-2023,07:00,4.78944,R,ugm-3,2.53045,R,ugm-3,9.87416,R,ugm-3
01-01-2023,08:00,4.41313,R,ugm-3,3.56791,R,ugm-3,10.33461,R,ugm-3
01-01-2023,09:00,3.35261,R,ugm-3,2.63595,R,ugm-3,7.77654,R,ugm-3
01-01-2023,10:00,7.35521,R,ugm-3,8.93094,R,ugm-3,20.20877,R,ugm-3
01-01-2023,11:00,9.47625,R,ugm-3,8.18564,R,ugm-3,22.71568,R,ugm-3
01-01-2023,12:00,9.98940,R,ugm-3,11.84986,R,ugm-3,27.16673,R,ugm-3
01-01-2023,13:00,17.58409,R,ugm-3,16.21837,R,ugm-3,43.18026,R,ugm-3
01-01-2023,14:00,22.74984,R,ugm-3,21.13918,R,ugm-3,56.02178,R,ugm-3
01-01-2023,15:00,21.07354,R,ugm-3,15.77946,R,ugm-3,48.09176,R,ugm-3
01-01-2023,16:00,47.48387,R,ugm-3,39.90108,R,ugm-3,112.70867,R,ugm-3
01-01-2023,17:00,29.89979,R,ugm-3,29.25930,R,ugm-3,75.10500,R,ugm-3
01-01-2023,18:00,44.50758,R,ugm-3,42.77634,R,ugm-3,111.02034,R,ugm-3
01-01-2023,19:00,33.25240,R,ugm-3,35.78352,R,ugm-3,86.76981,R,ugm-3
01-01-2023,20:00,30.34452,R,ugm-3,41.72588,R,ugm-3,88.25349,R,ugm-3
01-01-2023,21:00,13.85516,R,ugm-3,25.05682,R,ugm-3,46.30111,R,ugm-3
01-01-2023,22:00,19.80775,R,ugm-3,27.33865,R,ugm-3,57.71011,R,ugm-3
01-01-2023,23:00,11.83676,R,ugm-3,23.39365,R,ugm-3,41.54309,R,ugm-3
01-01-2023,24:00,5.16575,R,ugm-3,8.29747,R,ugm-3,16.21818,R,ugm-3
02-01-2023,01:00,2.78056,R,ugm-3,2.48386,R,ugm-3,6.74732,R,ugm-3
02-01-2023,02:00,4.28479,R,ugm-3,3.03990,R,ugm-3,9.60981,R,ugm-3
02-01-2023,03:00,5.40157,R,ugm-3,11.55073,R,ugm-3,19.83302,R,ugm-3
02-01-2023,04:00,12.71762,R,ugm-3,19.34811,R,ugm-3,38.84818,R,ugm-3
02-01-2023,05:00,18.49525,R,ugm-3,30.68003,R,ugm-3,59.03902,R,ugm-3
02-01-2023,06:00,34.66577,R,ugm-3,36.40185,R,ugm-3,89.55529,R,ugm-3
02-01-2023,07:00,77.77576,R,ugm-3,50.34848,R,ugm-3,169.60299,R,ugm-3
02-01-2023,08:00,64.92140,R,ugm-3,50.12299,R,ugm-3,149.66774,R,ugm-3
02-01-2023,09:00,61.36593,R,ugm-3,44.53356,R,ugm-3,138.62667,R,ugm-3
02-01-2023,10:00,82.80127,R,ugm-3,43.86959,R,ugm-3,170.82977,R,ugm-3
02-01-2023,11:00,202.42211,R,ugm-3,64.50873,R,ugm-3,374.88496,R,ugm-3
02-01-2023,12:00,176.20056,R,ugm-3,70.36456,R,ugm-3,340.53499,R,ugm-3
02-01-2023,13:00,103.14263,R,ugm-3,61.75134,R,ugm-3,219.90116,R,ugm-3
02-01-2023,14:00,29.67444,R,ugm-3,37.20556,R,ugm-3,82.70574,R,ugm-3
02-01-2023,15:00,38.15286,R,ugm-3,42.50504,R,ugm-3,101.00528,R,ugm-3
02-01-2023,16:00,45.74241,R,ugm-3,34.03709,R,ugm-3,104.17447,R,ugm-3
02-01-2023,17:00,113.56971,R,ugm-3,60.58702,R,ugm-3,234.72481,R,ugm-3
02-01-2023,18:00,124.78309,R,ugm-3,63.37977,R,ugm-3,254.71118,R,ugm-3
02-01-2023,19:00,97.46756,R,ugm-3,56.65166,R,ugm-3,206.09983,R,ugm-3
02-01-2023,20:00,81.91241,R,ugm-3,46.86821,R,ugm-3,172.46549,R,ugm-3
02-01-2023,21:00,89.60452,R,ugm-3,51.22648,R,ugm-3,188.61815,R,ugm-3
02-01-2023,22:00,40.81946,R,ugm-3,38.56967,R,ugm-3,101.15862,R,ugm-3
02-01-2023,23:00,27.62322,R,ugm-3,30.63868,R,ugm-3,72.99369,R,ugm-3
02-01-2023,24:00,28.40952,R,ugm-3,25.49710,R,ugm-3,69.05776,R,ugm-3
03-01-2023,01:00,20.68062,R,ugm-3,24.67212,R,ugm-3,56.38196,R,ugm-3
03-01-2023,02:00,19.50765,R,ugm-3,23.50855,R,ugm-3,53.41986,R,ugm-3
03-01-2023,03:00,6.79864,R,ugm-3,16.18336,R,ugm-3,26.60779,R,ugm-3
03-01-2023,04:00,35.49641,R,ugm-3,30.96300,R,ugm-3,85.39007,R,ugm-3
03-01-2023,05:00,23.50484,R,ugm-3,22.38453,R,ugm-3,58.42478,R,ugm-3
03-01-2023,06:00,34.74480,R,ugm-3,33.34114,R,ugm-3,86.61576,R,ugm-3
03-01-2023,07:00,53.05671,R,ugm-3,47.60081,R,ugm-3,128.95330,R,ugm-3
03-01-2023,08:00,70.61702,R,ugm-3,46.92568,R,ugm-3,155.20360,R,ugm-3
03-01-2023,09:00,54.83324,R,ugm-3,53.45670,R,ugm-3,137.53316,R,ugm-3
03-01-2023,10:00,25.34970,R,ugm-3,35.13233,R,ugm-3,74.00132,R,ugm-3
03-01-2023,11:00,26.98957,R,ugm-3,31.44327,R,ugm-3,72.82670,R,ugm-3
03-01-2023,12:00,33.44657,R,ugm-3,30.68431,R,ugm-3,81.96834,R,ugm-3
03-01-2023,13:00,52.30510,R,ugm-3,45.89330,R,ugm-3,126.09335,R,ugm-3
03-01-2023,14:00,46.36057,R,ugm-3,30.59638,R,ugm-3,101.68159,R,ugm-3
03-01-2023,15:00,23.67566,R,ugm-3,29.62999,R,ugm-3,65.93216,R,ugm-3
03-01-2023,16:00,32.38748,R,ugm-3,29.29505,R,ugm-3,78.95517,R,ugm-3
03-01-2023,17:00,30.03017,R,ugm-3,37.96554,R,ugm-3,84.01116,R,ugm-3
03-01-2023,18:00,20.32759,R,ugm-3,21.28099,R,ugm-3,52.44952,R,ugm-3
03-01-2023,19:00,13.52895,R,ugm-3,23.32984,R,ugm-3,44.07394,R,ugm-3
03-01-2023,20:00,8.84848,R,ugm-3,9.92500,R,ugm-3,23.49248,R,ugm-3
03-01-2023,21:00,5.60290,R,ugm-3,4.63630,R,ugm-3,13.22729,R,ugm-3
03-01-2023,22:00,3.86053,R,ugm-3,5.36720,R,ugm-3,11.28661,R,ugm-3
03-01-2023,23:00,3.00643,R,ugm-3,1.99533,R,ugm-3,6.60513,R,ugm-3
03-01-2023,24:00,5.23848,R,ugm-3,2.99903,R,ugm-3,11.03125,R,ugm-3
04-01-2023,01:00,,,,,,,,,
04-01-2023,02:00,1.04699,R,ugm-3,0.50368,R,ugm-3,2.10904,R,ugm-3
04-01-2023,03:00,1.26321,R,ugm-3,1.07359,R,ugm-3,3.01049,R,ugm-3
04-01-2023,04:00,1.94603,R,ugm-3,1.91455,R,ugm-3,4.89842,R,ugm-3
04-01-2023,05:00,6.62333,R,ugm-3,7.34601,R,ugm-3,17.50164,R,ugm-3
04-01-2023,06:00,14.61230,R,ugm-3,17.19035,R,ugm-3,39.59555,R,ugm-3
04-01-2023,07:00,25.43495,R,ugm-3,21.51616,R,ugm-3,60.51589,R,ugm-3
04-01-2023,08:00,37.93052,R,ugm-3,30.06325,R,ugm-3,88.22257,R,ugm-3
04-01-2023,09:00,35.13096,R,ugm-3,37.36633,R,ugm-3,91.23305,R,ugm-3
04-01-2023,10:00,18.70920,R,ugm-3,26.31812,R,ugm-3,55.00516,R,ugm-3
04-01-2023,11:00,23.86447,R,ugm-3,24.63855,R,ugm-3,61.23024,R,ugm-3
04-01-2023,12:00,22.94267,R,ugm-3,29.06245,R,ugm-3,64.24072,R,ugm-3
04-01-2023,13:00,17.85568,R,ugm-3,19.20768,R,ugm-3,46.58601,R,ugm-3
04-01-2023,14:00,,,,,,,,,
04-01-2023,15:00,25.94707,R,ugm-3,29.81342,R,ugm-3,69.59837,R,ugm-3
04-01-2023,16:00,28.47349,R,ugm-3,33.84853,R,ugm-3,77.50728,R,ugm-3
04-01-2023,17:00,32.29727,R,ugm-3,33.80236,R,ugm-3,83.32415,R,ugm-3
04-01-2023,18:00,45.40737,R,ugm-3,38.85591,R,ugm-3,108.47957,R,ugm-3
04-01-2023,19:00,30.00983,R,ugm-3,37.56484,R,ugm-3,83.57927,R,ugm-3
04-01-2023,20:00,25.36667,R,ugm-3,27.38671,R,ugm-3,66.28173,R,ugm-3
04-01-2023,21:00,10.92508,R,ugm-3,13.76151,R,ugm-3,30.51307,R,ugm-3
04-01-2023,22:00,9.01319,R,ugm-3,16.08073,R,ugm-3,29.90077,R,ugm-3
04-01-2023,23:00,7.30615,R,ugm-3,10.07490,R,ugm-3,21.27751,R,ugm-3
04-01-2023,24:00,2.90197,R,ugm-3,2.84697,R,ugm-3,7.29660,R,ugm-3
05-01-2023,01:00,3.37117,R,ugm-3,4.09489,R,ugm-3,9.26395,R,ugm-3
05-01-2023,02:00,2.01587,R,ugm-3,1.09826,R,ugm-3,4.18921,R,ugm-3
05-01-2023,03:00,3.14339,R,ugm-3,3.45645,R,ugm-3,8.27625,R,ugm-3
05-01-2023,04:00,10.38685,R,ugm-3,7.11438,R,ugm-3,23.04067,R,ugm-3
05-01-2023,05:00,27.88049,R,ugm-3,23.05179,R,ugm-3,65.80128,R,ugm-3
05-01-2023,06:00,27.36799,R,ugm-3,27.82248,R,ugm-3,69.78614,R,ugm-3
05-01-2023,07:00,67.10452,R,ugm-3,38.62146,R,ugm-3,141.51362,R,ugm-3
05-01-2023,08:00,68.60788,R,ugm-3,46.84046,R,ugm-3,152.03774,R,ugm-3
05-01-2023,09:00,34.40644,R,ugm-3,40.32644,R,ugm-3,93.08225,R,ugm-3
05-01-2023,10:00,32.83475,R,ugm-3,27.35886,R,ugm-3,77.70477,R,ugm-3
05-01-2023,11:00,18.79200,R,ugm-3,23.95986,R,ugm-3,52.77385,R,ugm-3
05-01-2023,12:00,19.68035,R,ugm-3,26.58260,R,ugm-3,56.75871,R,ugm-3
05-01-2023,13:00,26.92381,R,ugm-3,23.34366,R,ugm-3,64.62626,R,ugm-3
05-01-2023,14:00,27.74383,R,ugm-3,22.59720,R,ugm-3,65.13714,R,ugm-3
05-01-2023,15:00,18.68950,R,ugm-3,23.50397,R,ugm-3,52.16080,R,ugm-3
05-01-2023,16:00,18.07449,R,ugm-3,23.83392,R,ugm-3,51.54774,R,ugm-3
05-01-2023,17:00,18.99700,R,ugm-3,17.61714,R,ugm-3,46.74548,R,ugm-3
05-01-2023,18:00,19.64618,R,ugm-3,23.92733,R,ugm-3,54.05105,R,ugm-3
05-01-2023,19:00,14.38442,R,ugm-3,10.69157,R,ugm-3,32.74738,R,ugm-3
05-01-2023,20:00,12.60772,R,ugm-3,9.83965,R,ugm-3,29.17122,R,ugm-3
05-01-2023,21:00,6.25261,R,ugm-3,5.38157,R,ugm-3,14.96877,R,ugm-3
05-01-2023,22:00,4.51008,R,ugm-3,7.28709,R,ugm-3,14.20245,R,ugm-3
05-01-2023,23:00,7.61930,R,ugm-3,5.63605,R,ugm-3,17.31882,R,ugm-3
05-01-2023,24:00,5.63760,R,ugm-3,8.52135,R,ugm-3,17.16555,R,ugm-3
06-01-2023,01:00,4.96948,R,ugm-3,7.72545,R,ugm-3,15.34521,R,ugm-3
06-01-2023,02:00,2.49614,R,ugm-3,4.15215,R,ugm-3,7.97951,R,ugm-3
06-01-2023,03:00,4.61615,R,ugm-3,7.29536,R,ugm-3,14.37335,R,ugm-3
06-01-2023,04:00,8.24067,R,ugm-3,7.10865,R,ugm-3,19.74417,R,ugm-3
06-01-2023,05:00,19.55878,R,ugm-3,23.61623,R,ugm-3,53.60594,R,ugm-3
06-01-2023,06:00,58.60795,R,ugm-3,49.41911,R,ugm-3,139.28337,R,ugm-3
06-01-2023,07:00,50.53824,R,ugm-3,63.32700,R,ugm-3,140.81789,R,ugm-3
06-01-2023,08:00,63.60022,R,ugm-3,58.95103,R,ugm-3,156.47000,R,ugm-3
06-01-2023,09:00,38.02336,R,ugm-3,41.28875,R,ugm-3,99.59042,R,ugm-3
06-01-2023,10:00,50.60663,R,ugm-3,32.73632,R,ugm-3,110.33207,R,ugm-3
06-01-2023,11:00,31.90269,R,ugm-3,30.05991,R,ugm-3,78.97669,R,ugm-3
06-01-2023,12:00,28.51752,R,ugm-3,34.38088,R,ugm-3,78.10713,R,ugm-3
06-01-2023,13:00,38.98078,R,ugm-3,32.65963,R,ugm-3,92.42932,R,ugm-3
06-01-2023,14:00,35.62980,R,ugm-3,39.79260,R,ugm-3,94.42420,R,ugm-3
06-01-2023,15:00,93.96420,R,ugm-3,56.43434,R,ugm-3,200.51076,R,ugm-3
06-01-2023,16:00,85.31320,R,ugm-3,66.73227,R,ugm-3,197.54402,R,ugm-3
06-01-2023,17:00,85.48417,R,ugm-3,66.00977,R,ugm-3,197.08366,R,ugm-3
06-01-2023,18:00,39.49369,R,ugm-3,28.34378,R,ugm-3,88.89992,R,ugm-3
06-01-2023,19:00,32.82592,R,ugm-3,29.00237,R,ugm-3,79.33474,R,ugm-3
06-01-2023,20:00,16.17360,R,ugm-3,14.84261,R,ugm-3,39.64180,R,ugm-3
06-01-2023,21:00,11.11294,R,ugm-3,18.91934,R,ugm-3,35.95895,R,ugm-3
06-01-2023,22:00,6.66777,R,ugm-3,9.26466,R,ugm-3,19.48842,R,ugm-3
06-01-2023,23:00,5.30002,R,ugm-3,7.42323,R,ugm-3,15.54982,R,ugm-3
06-01-2023,24:00,4.71873,R,ugm-3,4.83629,R,ugm-3,12.07157,R,ugm-3
07-01-2023,01:00,2.19008,R,ugm-3,2.65096,R,ugm-3,6.00905,R,ugm-3
07-01-2023,02:00,2.36118,R,ugm-3,1.39849,R,ugm-3,5.01892,R,ugm-3
07-01-2023,03:00,1.47146,R,ugm-3,3.47970,R,ugm-3,5.73591,R,ugm-3
07-01-2023,04:00,1.16348,R,ugm-3,2.72280,R,ugm-3,4.50679,R,ugm-3
07-01-2023,05:00,2.46384,R,ugm-3,3.44326,R,ugm-3,7.22110,R,ugm-3
07-01-2023,06:00,9.65006,R,ugm-3,8.86407,R,ugm-3,23.66062,R,ugm-3
07-01-2023,07:00,13.68803,R,ugm-3,10.96919,R,ugm-3,31.95720,R,ugm-3
07-01-2023,08:00,7.52841,R,ugm-3,10.42717,R,ugm-3,21.97057,R,ugm-3
07-01-2023,09:00,15.36481,R,ugm-3,23.45491,R,ugm-3,47.01396,R,ugm-3
07-01-2023,10:00,22.92744,R,ugm-3,14.67578,R,ugm-3,49.83069,R,ugm-3
07-01-2023,11:00,28.95017,R,ugm-3,31.50870,R,ugm-3,75.89835,R,ugm-3
07-01-2023,12:00,31.68778,R,ugm-3,27.31110,R,ugm-3,75.89835,R,ugm-3
07-01-2023,13:00,34.52804,R,ugm-3,39.34439,R,ugm-3,92.28665,R,ugm-3
07-01-2023,14:00,40.58499,R,ugm-3,42.34843,R,ugm-3,104.57788,R,ugm-3
07-01-2023,15:00,31.61934,R,ugm-3,32.74224,R,ugm-3,81.22454,R,ugm-3
07-01-2023,16:00,28.19733,R,ugm-3,16.53080,R,ugm-3,59.76611,R,ugm-3
07-01-2023,17:00,20.22406,R,ugm-3,21.63765,R,ugm-3,52.64743,R,ugm-3
07-01-2023,18:00,19.71076,R,ugm-3,24.57566,R,ugm-3,54.79840,R,ugm-3
07-01-2023,19:00,16.87049,R,ugm-3,18.94405,R,ugm-3,44.81178,R,ugm-3
07-01-2023,20:00,12.25078,R,ugm-3,14.65812,R,ugm-3,33.44239,R,ugm-3
07-01-2023,21:00,4.48283,R,ugm-3,5.62251,R,ugm-3,12.49608,R,ugm-3
07-01-2023,22:00,5.95429,R,ugm-3,8.94857,R,ugm-3,18.07835,R,ugm-3
07-01-2023,23:00,5.40677,R,ugm-3,7.84198,R,ugm-3,16.13224,R,ugm-3
07-01-2023,24:00,6.80979,R,ugm-3,8.55866,R,ugm-3,19.00019,R,ugm-3
08-01-2023,01:00,2.42008,R,ugm-3,4.21998,R,ugm-3,7.93072,R,ugm-3
08-01-2023,02:00,1.57534,R,ugm-3,2.40448,R,ugm-3,4.81997,R,ugm-3
08-01-2023,03:00,1.36986,R,ugm-3,1.79657,R,ugm-3,3.89699,R,ugm-3
08-01-2023,04:00,1.68949,R,ugm-3,2.46874,R,ugm-3,5.05925,R,ugm-3
08-01-2023,05:00,2.29451,R,ugm-3,1.76325,R,ugm-3,5.28145,R,ugm-3
08-01-2023,06:00,8.25340,R,ugm-3,8.26566,R,ugm-3,20.92069,R,ugm-3
08-01-2023,07:00,29.52045,R,ugm-3,32.77834,R,ugm-3,78.04239,R,ugm-3
08-01-2023,08:00,11.78078,R,ugm-3,15.77869,R,ugm-3,33.84230,R,ugm-3
08-01-2023,09:00,21.50677,R,ugm-3,27.22168,R,ugm-3,60.19827,R,ugm-3
08-01-2023,10:00,22.77389,R,ugm-3,32.86767,R,ugm-3,67.78715,R,ugm-3
08-01-2023,11:00,20.34239,R,ugm-3,22.39240,R,ugm-3,53.58364,R,ugm-3
08-01-2023,12:00,30.37661,R,ugm-3,26.69689,R,ugm-3,73.27370,R,ugm-3
08-01-2023,13:00,20.17116,R,ugm-3,18.34775,R,ugm-3,49.27644,R,ugm-3
08-01-2023,14:00,38.59576,R,ugm-3,39.27099,R,ugm-3,98.45033,R,ugm-3
08-01-2023,15:00,40.20534,R,ugm-3,46.80186,R,ugm-3,108.44919,R,ugm-3
08-01-2023,16:00,50.65051,R,ugm-3,56.57809,R,ugm-3,134.24112,R,ugm-3
08-01-2023,17:00,53.11625,R,ugm-3,56.38667,R,ugm-3,137.83045,R,ugm-3
08-01-2023,18:00,42.29437,R,ugm-3,50.11080,R,ugm-3,114.96126,R,ugm-3
08-01-2023,19:00,29.93140,R,ugm-3,30.30227,R,ugm-3,76.19645,R,ugm-3
08-01-2023,20:00,31.78071,R,ugm-3,33.00454,R,ugm-3,81.73428,R,ugm-3
08-01-2023,21:00,24.41772,R,ugm-3,36.75669,R,ugm-3,74.19668,R,ugm-3
08-01-2023,22:00,11.19859,R,ugm-3,27.59320,R,ugm-3,44.76413,R,ugm-3
08-01-2023,23:00,9.82873,R,ugm-3,20.25880,R,ugm-3,35.32931,R,ugm-3
08-01-2023,24:00,5.68491,R,ugm-3,15.33180,R,ugm-3,24.04854,R,ugm-3
09-01-2023,01:00,5.52935,R,ugm-3,10.41452,R,ugm-3,18.89274,R,ugm-3
09-01-2023,02:00,4.86675,R,ugm-3,8.60686,R,ugm-3,16.06910,R,ugm-3
09-01-2023,03:00,3.39301,R,ugm-3,2.80633,R,ugm-3,8.00888,R,ugm-3
09-01-2023,04:00,7.74566,R,ugm-3,8.71041,R,ugm-3,20.58693,R,ugm-3
09-01-2023,05:00,12.61241,R,ugm-3,16.64986,R,ugm-3,35.98861,R,ugm-3
09-01-2023,06:00,33.45030,R,ugm-3,32.85482,R,ugm-3,84.14456,R,ugm-3
09-01-2023,07:00,55.35065,R,ugm-3,33.15846,R,ugm-3,118.02828,R,ugm-3
09-01-2023,08:00,99.15135,R,ugm-3,63.74771,R,ugm-3,215.77767,R,ugm-3
09-01-2023,09:00,84.44830,R,ugm-3,71.96850,R,ugm-3,201.45409,R,ugm-3
09-01-2023,10:00,55.04220,R,ugm-3,39.12469,R,ugm-3,123.52155,R,ugm-3
09-01-2023,11:00,38.93396,R,ugm-3,35.89525,R,ugm-3,95.59315,R,ugm-3
09-01-2023,12:00,38.55696,R,ugm-3,42.94202,R,ugm-3,102.06186,R,ugm-3
09-01-2023,13:00,32.69630,R,ugm-3,35.91048,R,ugm-3,86.04410,R,ugm-3
09-01-2023,14:00,37.01468,R,ugm-3,29.64843,R,ugm-3,86.40348,R,ugm-3
09-01-2023,15:00,36.94613,R,ugm-3,34.01466,R,ugm-3,90.66461,R,ugm-3
09-01-2023,16:00,33.58739,R,ugm-3,33.56871,R,ugm-3,85.06866,R,ugm-3
09-01-2023,17:00,54.08256,R,ugm-3,48.04027,R,ugm-3,130.96570,R,ugm-3
09-01-2023,18:00,55.62484,R,ugm-3,56.71335,R,ugm-3,142.00357,R,ugm-3
09-01-2023,19:00,44.17770,R,ugm-3,45.10484,R,ugm-3,112.84304,R,ugm-3
09-01-2023,20:00,36.50059,R,ugm-3,43.37411,R,ugm-3,99.34090,R,ugm-3
09-01-2023,21:00,37.49450,R,ugm-3,46.16261,R,ugm-3,103.65337,R,ugm-3
09-01-2023,22:00,47.29653,R,ugm-3,46.22668,R,ugm-3,118.74702,R,ugm-3
09-01-2023,23:00,60.01176,R,ugm-3,49.88415,R,ugm-3,141.90090,R,ugm-3
09-01-2023,24:00,36.87759,R,ugm-3,35.86529,R,ugm-3,92.41014,R,ugm-3
10-01-2023,01:00,19.93929,R,ugm-3,23.91266,R,ugm-3,54.48582,R,ugm-3
10-01-2023,02:00,2.81254,R,ugm-3,10.13139,R,ugm-3,14.44388,R,ugm-3
10-01-2023,03:00,13.61680,R,ugm-3,15.15380,R,ugm-3,36.03260,R,ugm-3
10-01-2023,04:00,35.08813,R,ugm-3,23.55854,R,ugm-3,77.35959,R,ugm-3
10-01-2023,05:00,16.36074,R,ugm-3,19.17076,R,ugm-3,44.25688,R,ugm-3
10-01-2023,06:00,32.00120,R,ugm-3,30.70765,R,ugm-3,79.77546,R,ugm-3
10-01-2023,07:00,57.79423,R,ugm-3,53.25216,R,ugm-3,141.86874,R,ugm-3
10-01-2023,08:00,90.55001,R,ugm-3,71.59722,R,ugm-3,210.43863,R,ugm-3
10-01-2023,09:00,70.34775,R,ugm-3,53.02233,R,ugm-3,160.88738,R,ugm-3
10-01-2023,10:00,66.98643,R,ugm-3,61.98002,R,ugm-3,164.69110,R,ugm-3
10-01-2023,11:00,18.72739,R,ugm-3,21.29894,R,ugm-3,50.01387,R,ugm-3
10-01-2023,12:00,13.89119,R,ugm-3,16.22372,R,ugm-3,37.52325,R,ugm-3
10-01-2023,13:00,15.09167,R,ugm-3,11.04191,R,ugm-3,34.18214,R,ugm-3
10-01-2023,14:00,14.06269,R,ugm-3,14.52152,R,ugm-3,36.08401,R,ugm-3
10-01-2023,15:00,18.48729,R,ugm-3,14.83066,R,ugm-3,43.17744,R,ugm-3
10-01-2023,16:00,19.92786,R,ugm-3,15.03770,R,ugm-3,45.59332,R,ugm-3
10-01-2023,17:00,21.19693,R,ugm-3,20.03105,R,ugm-3,52.53256,R,ugm-3
10-01-2023,18:00,15.09167,R,ugm-3,12.53256,R,ugm-3,35.67279,R,ugm-3
10-01-2023,19:00,14.13129,R,ugm-3,11.74344,R,ugm-3,33.41112,R,ugm-3
10-01-2023,20:00,11.07866,R,ugm-3,15.44745,R,ugm-3,32.43448,R,ugm-3
10-01-2023,21:00,11.59315,R,ugm-3,19.23333,R,ugm-3,37.00924,R,ugm-3
10-01-2023,22:00,9.19220,R,ugm-3,8.98487,R,ugm-3,23.07937,R,ugm-3
10-01-2023,23:00,6.61975,R,ugm-3,8.81709,R,ugm-3,18.96723,R,ugm-3
10-01-2023,24:00,7.23714,R,ugm-3,6.94521,R,ugm-3,18.04200,R,ugm-3
11-01-2023,01:00,12.35723,R,ugm-3,9.25504,R,ugm-3,28.20253,R,ugm-3
11-01-2023,02:00,2.05954,R,ugm-3,1.78267,R,ugm-3,4.94059,R,ugm-3
11-01-2023,03:00,1.57898,R,ugm-3,1.74756,R,ugm-3,4.16862,R,ugm-3
11-01-2023,04:00,3.12363,R,ugm-3,5.34900,R,ugm-3,10.13850,R,ugm-3
11-01-2023,05:00,5.86968,R,ugm-3,9.63008,R,ugm-3,18.63014,R,ugm-3
11-01-2023,06:00,25.81288,R,ugm-3,32.05935,R,ugm-3,71.63854,R,ugm-3
11-01-2023,07:00,35.59569,R,ugm-3,37.23332,R,ugm-3,91.81262,R,ugm-3
11-01-2023,08:00,64.05164,R,ugm-3,63.74754,R,ugm-3,161.95869,R,ugm-3
11-01-2023,09:00,67.99909,R,ugm-3,48.79152,R,ugm-3,153.05533,R,ugm-3
11-01-2023,10:00,58.76549,R,ugm-3,58.47209,R,ugm-3,148.57793,R,ugm-3
11-01-2023,11:00,21.76246,R,ugm-3,24.73476,R,ugm-3,58.10339,R,ugm-3
11-01-2023,12:00,20.49241,R,ugm-3,32.85787,R,ugm-3,64.27912,R,ugm-3
11-01-2023,13:00,26.12181,R,ugm-3,23.96892,R,ugm-3,64.02180,R,ugm-3
11-01-2023,14:00,26.25911,R,ugm-3,31.52952,R,ugm-3,71.79294,R,ugm-3
11-01-2023,15:00,32.54071,R,ugm-3,39.70459,R,ugm-3,89.59964,R,ugm-3
11-01-2023,16:00,26.87698,R,ugm-3,35.00809,R,ugm-3,76.21888,R,ugm-3
11-01-2023,17:00,31.64824,R,ugm-3,32.99310,R,ugm-3,81.51972,R,ugm-3
11-01-2023,18:00,39.19988,R,ugm-3,58.46850,R,ugm-3,118.57414,R,ugm-3
11-01-2023,19:00,23.68469,R,ugm-3,23.84595,R,ugm-3,60.16197,R,ugm-3
11-01-2023,20:00,11.05286,R,ugm-3,18.40862,R,ugm-3,35.35609,R,ugm-3
11-01-2023,21:00,6.65917,R,ugm-3,7.64758,R,ugm-3,17.85817,R,ugm-3
11-01-2023,22:00,4.53098,R,ugm-3,6.94799,R,ugm-3,13.89541,R,ugm-3
11-01-2023,23:00,3.36391,R,ugm-3,2.87053,R,ugm-3,8.02846,R,ugm-3
11-01-2023,24:00,2.36847,R,ugm-3,1.46338,R,ugm-3,5.09498,R,ugm-3
12-01-2023,01:00,1.96952,R,ugm-3,1.65192,R,ugm-3,4.67180,R,ugm-3
12-01-2023,02:00,1.51149,R,ugm-3,0.77405,R,ugm-3,3.09163,R,ugm-3
12-01-2023,03:00,1.33973,R,ugm-3,1.75879,R,ugm-3,3.81301,R,ugm-3
12-01-2023,04:00,2.47335,R,ugm-3,2.13322,R,ugm-3,5.92563,R,ugm-3
12-01-2023,05:00,3.77872,R,ugm-3,6.00577,R,ugm-3,11.79974,R,ugm-3
12-01-2023,06:00,13.01942,R,ugm-3,20.48604,R,ugm-3,40.44887,R,ugm-3
12-01-2023,07:00,26.10755,R,ugm-3,32.31321,R,ugm-3,72.34422,R,ugm-3
12-01-2023,08:00,37.78724,R,ugm-3,27.49252,R,ugm-3,85.43214,R,ugm-3
12-01-2023,09:00,32.49702,R,ugm-3,35.03726,R,ugm-3,84.86534,R,ugm-3
12-01-2023,10:00,25.48921,R,ugm-3,40.06291,R,ugm-3,79.14582,R,ugm-3
12-01-2023,11:00,20.85168,R,ugm-3,23.00741,R,ugm-3,54.97955,R,ugm-3
12-01-2023,12:00,20.30205,R,ugm-3,21.32534,R,ugm-3,52.45471,R,ugm-3
12-01-2023,13:00,21.53872,R,ugm-3,16.18292,R,ugm-3,49.20850,R,ugm-3
12-01-2023,14:00,26.31366,R,ugm-3,23.03144,R,ugm-3,63.37849,R,ugm-3
12-01-2023,15:00,29.47405,R,ugm-3,26.73910,R,ugm-3,71.93201,R,ugm-3
12-01-2023,16:00,27.58468,R,ugm-3,34.27353,R,ugm-3,76.56945,R,ugm-3
12-01-2023,17:00,47.44016,R,ugm-3,46.44191,R,ugm-3,119.18247,R,ugm-3
12-01-2023,18:00,62.24588,R,ugm-3,43.47504,R,ugm-3,138.91739,R,ugm-3
12-01-2023,19:00,29.88627,R,ugm-3,42.85338,R,ugm-3,88.67835,R,ugm-3
12-01-2023,20:00,19.44325,R,ugm-3,24.90934,R,ugm-3,54.72191,R,ugm-3
12-01-2023,21:00,7.11087,R,ugm-3,10.53214,R,ugm-3,21.43533,R,ugm-3
12-01-2023,22:00,7.28263,R,ugm-3,10.37183,R,ugm-3,21.53838,R,ugm-3
12-01-2023,23:00,6.97346,R,ugm-3,4.97178,R,ugm-3,15.66428,R,ugm-3
12-01-2023,24:00,3.57261,R,ugm-3,2.56032,R,ugm-3,8.03825,R,ugm-3
13-01-2023,01:00,2.79611,R,ugm-3,2.24742,R,ugm-3,6.53473,R,ugm-3
13-01-2023,02:00,2.52109,R,ugm-3,2.80670,R,ugm-3,6.67230,R,ugm-3
13-01-2023,03:00,2.75027,R,ugm-3,2.33490,R,ugm-3,6.55193,R,ugm-3
13-01-2023,04:00,2.71590,R,ugm-3,3.47100,R,ugm-3,7.63532,R,ugm-3
13-01-2023,05:00,6.42877,R,ugm-3,14.38999,R,ugm-3,24.24729,R,ugm-3
13-01-2023,06:00,16.26100,R,ugm-3,20.46600,R,ugm-3,45.39918,R,ugm-3
13-01-2023,07:00,41.25411,R,ugm-3,37.44821,R,ugm-3,100.70363,R,ugm-3
13-01-2023,08:00,64.32204,R,ugm-3,52.58447,R,ugm-3,151.21022,R,ugm-3
13-01-2023,09:00,44.41693,R,ugm-3,45.03181,R,ugm-3,113.13682,R,ugm-3
13-01-2023,10:00,44.07315,R,ugm-3,44.47555,R,ugm-3,112.05343,R,ugm-3
13-01-2023,11:00,35.23789,R,ugm-3,34.08501,R,ugm-3,88.11568,R,ugm-3
13-01-2023,12:00,25.85258,R,ugm-3,30.26435,R,ugm-3,69.90442,R,ugm-3
13-01-2023,13:00,35.27227,R,ugm-3,25.41677,R,ugm-3,79.50015,R,ugm-3
13-01-2023,14:00,39.60395,R,ugm-3,37.76006,R,ugm-3,98.48527,R,ugm-3
13-01-2023,15:00,56.24311,R,ugm-3,36.08161,R,ugm-3,122.31984,R,ugm-3
13-01-2023,16:00,80.47990,R,ugm-3,51.28287,R,ugm-3,174.68366,R,ugm-3
13-01-2023,17:00,113.00189,R,ugm-3,66.41988,R,ugm-3,239.68703,R,ugm-3
13-01-2023,18:00,107.19194,R,ugm-3,72.38773,R,ugm-3,236.74640,R,ugm-3
13-01-2023,19:00,77.48898,R,ugm-3,79.44551,R,ugm-3,198.26028,R,ugm-3
13-01-2023,20:00,62.12182,R,ugm-3,52.70793,R,ugm-3,147.96005,R,ugm-3
13-01-2023,21:00,29.39356,R,ugm-3,35.61723,R,ugm-3,80.68673,R,ugm-3
13-01-2023,22:00,15.88283,R,ugm-3,16.50592,R,ugm-3,40.85926,R,ugm-3
13-01-2023,23:00,8.86963,R,ugm-3,14.87775,R,ugm-3,28.47767,R,ugm-3
13-01-2023,24:00,10.31353,R,ugm-3,11.99314,R,ugm-3,27.80700,R,ugm-3
14-01-2023,01:00,3.62397,R,ugm-3,7.87303,R,ugm-3,13.42971,R,ugm-3
14-01-2023,02:00,4.26620,R,ugm-3,8.79945,R,ugm-3,15.34086,R,ugm-3
14-01-2023,03:00,1.96108,R,ugm-3,3.29469,R,ugm-3,6.30163,R,ugm-3
14-01-2023,04:00,1.68584,R,ugm-3,2.47706,R,ugm-3,5.06197,R,ugm-3
14-01-2023,05:00,13.21145,R,ugm-3,18.37897,R,ugm-3,38.63624,R,ugm-3
14-01-2023,06:00,0.92893,R,ugm-3,1.82978,R,ugm-3,3.25412,R,ugm-3
14-01-2023,07:00,0.82572,R,ugm-3,0.69672,R,ugm-3,1.96280,R,ugm-3
14-01-2023,08:00,0.61929,R,ugm-3,0.80663,R,ugm-3,1.75619,R,ugm-3
14-01-2023,09:00,0.75691,R,ugm-3,3.33321,R,ugm-3,4.49379,R,ugm-3
14-01-2023,10:00,1.10095,R,ugm-3,4.40692,R,ugm-3,6.09502,R,ugm-3
14-01-2023,11:00,1.13536,R,ugm-3,4.92234,R,ugm-3,6.66320,R,ugm-3
14-01-2023,12:00,0.68810,R,ugm-3,3.95525,R,ugm-3,5.01032,R,ugm-3
14-01-2023,13:00,0.92893,R,ugm-3,2.65623,R,ugm-3,4.08057,R,ugm-3
14-01-2023,14:00,2.89001,R,ugm-3,6.31249,R,ugm-3,10.74377,R,ugm-3
14-01-2023,15:00,12.24812,R,ugm-3,14.32922,R,ugm-3,33.10940,R,ugm-3
14-01-2023,16:00,24.15219,R,ugm-3,28.97936,R,ugm-3,66.01219,R,ugm-3
14-01-2023,17:00,24.18659,R,ugm-3,29.90800,R,ugm-3,66.99359,R,ugm-3
14-01-2023,18:00,26.14767,R,ugm-3,38.78119,R,ugm-3,78.87372,R,ugm-3
14-01-2023,19:00,33.06303,R,ugm-3,34.68602,R,ugm-3,85.38196,R,ugm-3
14-01-2023,20:00,23.98016,R,ugm-3,26.04065,R,ugm-3,62.80972,R,ugm-3
14-01-2023,21:00,12.24812,R,ugm-3,18.77135,R,ugm-3,37.55153,R,ugm-3
14-01-2023,22:00,13.41788,R,ugm-3,19.30211,R,ugm-3,39.87591,R,ugm-3
14-01-2023,23:00,11.04395,R,ugm-3,13.90286,R,ugm-3,30.83668,R,ugm-3
14-01-2023,24:00,10.42466,R,ugm-3,15.21399,R,ugm-3,31.19825,R,ugm-3
15-01-2023,01:00,5.83035,R,ugm-3,5.81640,R,ugm-3,14.75615,R,ugm-3
15-01-2023,02:00,5.33684,R,ugm-3,5.62500,R,ugm-3,13.80803,R,ugm-3
15-01-2023,03:00,1.61827,R,ugm-3,4.39685,R,ugm-3,6.87816,R,ugm-3
15-01-2023,04:00,0.99851,R,ugm-3,0.43417,R,ugm-3,1.96519,R,ugm-3
15-01-2023,05:00,1.56088,R,ugm-3,1.12333,R,ugm-3,3.51665,R,ugm-3
15-01-2023,06:00,7.54044,R,ugm-3,17.81255,R,ugm-3,29.37440,R,ugm-3
15-01-2023,07:00,9.91619,R,ugm-3,14.06635,R,ugm-3,29.27096,R,ugm-3
15-01-2023,08:00,11.05242,R,ugm-3,14.39278,R,ugm-3,31.33958,R,ugm-3
15-01-2023,09:00,24.82491,R,ugm-3,24.82170,R,ugm-3,62.88603,R,ugm-3
15-01-2023,10:00,48.16927,R,ugm-3,44.25965,R,ugm-3,118.11817,R,ugm-3
15-01-2023,11:00,35.01655,R,ugm-3,41.10319,R,ugm-3,94.79448,R,ugm-3
15-01-2023,12:00,23.68868,R,ugm-3,30.23570,R,ugm-3,66.55783,R,ugm-3
15-01-2023,13:00,32.46864,R,ugm-3,35.23571,R,ugm-3,85.02025,R,ugm-3
15-01-2023,14:00,38.52853,R,ugm-3,30.90868,R,ugm-3,89.98494,R,ugm-3
15-01-2023,15:00,31.19468,R,ugm-3,37.55109,R,ugm-3,85.38226,R,ugm-3
15-01-2023,16:00,31.29798,R,ugm-3,48.51153,R,ugm-3,96.50109,R,ugm-3